{"data":{"norad_id":58498,"intl_designator":"2023-187C","name":"XINGCHI-1 02B","alt_names":[],"object_type":"PAYLOAD","status":"ACTIVE","operator":null,"country":"PRC","launch_date":"2023-12-04","launch_site_code":"JSC","launch_vehicle":null,"mission":null,"orbit_class":"UNKNOWN","rcs_meters":null,"size_class":null,"mass_kg":null,"dimensions":null,"purposes":[],"wikipedia_slug":null,"has_3d_model":false,"image_url":null,"decayed_at":null,"tle_current":{"epoch":"2026-09-21T21:59:40.283808Z","epoch_age_seconds":122642,"freshness":"FRESH","line1":"1 58498U 23187C   26264.91643847  .00000799  00000+0  97570-4 0  9993","line2":"2 58498  97.9251 348.6549 0010608 176.6605 183.4683 14.86034640151549","mean_motion":14.8603464,"eccentricity":0.0010608,"inclination_deg":97.9251,"raan_deg":348.6549,"arg_perigee_deg":176.6605,"mean_anomaly_deg":183.4683,"bstar":9.757e-5,"rev_number":15154,"period_min":96.902182576309,"perigee_km":602.92682295561,"apogee_km":617.75357618221,"semimajor_km":6988.4771995689,"source":"CELESTRAK","updated_at":"2026-09-22T09:00:26.679939Z"}}}